Koytash

Uzbekistan     40˚12′47″N   67˚20′15″E
temp.,
°C
wind,
m/s
gust,
m/s
humid.,
%
clouds,
%
prec.,
mm/h
press.,
hPa
HPBL,
m
28 november, sat
sat2823:00+5˚wsw102034100 0.1 1026532
02:00+1˚wsw11179899 2.1 1031768
05:00−1˚wsw121698100 8.8 1038832
08:00−2˚wsw71297100 0.4 1041838
11:00−1˚wsw5108880 0.4 1042582
14:00w25832 0.0 1041615
17:00−3˚e23871 0.0 104125
20:00−3˚ene349758 0.0 1042221
29 november, sun
sun2923:00−2˚e469574 0.1 1041313
02:00−5˚ene349576 0.0 103975
05:00−5˚ene449655 0.0 103980
08:00−6˚ne459655 0.0 1038108
11:00−3˚ne568440 0.0 1037292
14:00−2˚ne5687100 0.0 1035320
17:00−4˚ne4588100 0.0 1035107
20:00−5˚ne4482100 0.0 103592
30 november, mon
mon3023:00−5˚ne4485100 0.0 103575
02:00−6˚ne44810 0.0 103452
05:00−5˚ene44796 0.0 103256
08:00−4˚ene4585100 0.0 103289
11:00−1˚ene588199 0.0 1031232
14:00ene5777100 0.0 1028218
17:00−3˚ene4679100 0.0 1027100
20:00−2˚ene4672100 0.0 1027108
1 december, tue
tue123:00−2˚e4469100 0.0 102680
02:00−1˚se3371100 0.0 102654
05:00+3˚nw3470100 0.1 102536
08:00+3˚se2273100 0.0 102622
11:00+4˚sw228397 0.0 102648
14:00+5˚wsw587071 0.0 1025358
17:00+3˚wsw335669 0.0 102625
20:00+2˚sw226417 0.0 102722
2 december, wed
wed223:00+2˚sw226336 0.0 102822
02:00+2˚sw2263100 0.0 102822
05:00+2˚sw2263100 0.0 102822
08:00+2˚wsw116797 0.0 102922
11:00+7˚sse226898 0.0 102874
14:00+8˚e116499 0.0 102697
17:00+4˚ene117299 0.0 102526
20:00+4˚ene1272100 0.1 102526